Location: Azenweiler
(47.8027°N, 9.4096°E)
Time: 03:09:12
(UTC+00:00)

Cosmos 2151 - Pass Details

Date: 10 December 2025
Orbit: 560 x 575 km, 82.5° (Epoch: 12 January)

Event Time Altitude Azimuth Distance (km) Brightness Sun altitude
Rises 05:26:17 0° 173° (S) 2,736 6.7 -15.0°
Reaches altitude 10° 05:28:29 10° 167° (SSE) 1,847 5.9 -14.6°
Maximum altitude 05:32:23 46° 94° (E) 760 4.0 -14.0°
Drops below altitude 10° 05:36:20 10° 21° (NNE) 1,870 5.5 -13.4°
Sets 05:38:35 0° 15° (NNE) 2,775 6.4 -13.0°
